Regional Weather Roundup
Issued by NWS

Home | Current Version | Previous Version | Text Only | Print | Product List | Glossary On
Versions: 1 2 3 4 5 6 7 8 9 10 11 12 13 14 15 16 17 18 19 20 21 22 23 24 25 26 27 28 29 30 31 32 33 34 35 36 37 38 39 40 41 42 43 44 45 46 47 48 49 50
000
ASHW40 PHFO 060443
RWRHI

WEATHER ROUNDUP FOR HAWAII
NATIONAL WEATHER SERVICE HONOLULU HI
600 PM HST SUN JUL 05 2015

THIS IS AN AUTOMATED REPORT THAT HAS NOT BEEN QUALITY CONTROLLED.

NOTE..."FAIR" INDICATES FEW OR NO CLOUDS BELOW 12,000 FEET WITH NO
SIGNIFICANT WEATHER AND/OR OBSTRUCTIONS TO VISIBILITY.

* - THESE SITES REPORT LIMITED FIELDS

HIZ001>004-060500-
KAUAI-NIIHAU-

CITY           SKY/WX    TMP DP  RH WIND       PRES   REMARKS
LIHUE APT      SUNNY     82  69  64 NE10      29.98R
PORT ALLEN*    NOT AVBL
POIPU*           N/A     82 N/A N/A NE9G16      N/A
PRINCEVILLE*     N/A     81 N/A N/A MISG        N/A
KOKOLE POINT*  NOT AVBL
MOLOAA DAIRY*  NOT AVBL
WAIMEA HTS*      N/A     82  66  57 SW5G14      N/A
PUU OPAE*        N/A     75  63  64 SW5G10      N/A
PUU LUA*       NOT AVBL
MAKAHA RIDGE*    N/A     79  66  65 SW3         N/A
$$

HIZ005>011-060500-
OAHU-

CITY           SKY/WX    TMP DP  RH WIND       PRES   REMARKS
HONOLULU       MOSUNNY   85  67  54 NE14      29.94R
KALAELOA       SUNNY     84  65  52 E8        29.95R
KANEOHE MCB    SUNNY     81  70  69 NE10      29.94R
WHEELER FIELD  FAIR      81  65  58 NE15      29.95R
BELLOWS*         N/A    N/A N/A N/A NE15        N/A
KAHUKU*          N/A    N/A N/A N/A E9G16       N/A
WHEELER*       NOT AVBL
WAIANAE HARBOR NOT AVBL
DILLINGHAM*      N/A     84  64  51 MISG        N/A
KAHUKU TRN*      N/A     81  70  69 E7G18       N/A
KAWAILOA*        N/A     77  66  69 NE10G17     N/A
KII*             N/A     81  72  74 E14         N/A
MAKUA RANGE*     N/A     86  63  45 E8G15       N/A
OAHU FOREST NW   N/A     68  66  94 CALM        N/A
SCHOFIELD BRK*   N/A     81  64  57 MISG        N/A
SCHOFIELD S*   NOT AVBL
WAIANAE VLY*     N/A     81  64  57 MISG        N/A
KUAOKALA*        N/A     75  66  73 NE17G29     N/A
HONOULIUULI*   NOT AVBL
MOKUOLOE IS*     N/A    N/A N/A N/A MISG        N/A
PALEHUA*         N/A     72  59  64 NE3G9       N/A
WAIAWA PHB*    NOT AVBL
$$

HIZ012>013-060500-
MOLOKAI-

CITY           SKY/WX    TMP DP  RH WIND       PRES   REMARKS
MOLOKAI AIRPT  MOSUNNY   80  68  66 NE13G20   29.96R
KALAUPAPA      NOT AVBL
MAKAPULAPAI*     N/A     81  70  69 E13G18      N/A
MOLOKAI 1*       N/A     72  61  68 NE3G13      N/A
PUU ALII*        N/A     65  58  79 CALM        N/A
$$

HIZ016-060500-
KAHOOLAWE-

CITY           SKY/WX    TMP DP  RH WIND       PRES   REMARKS
KAHOOLAWE*     NOT AVBL
HAKIOAWA*        N/A     77  68  72 MISG      30.39R
HONOKANAIA*      N/A     81  69  65 E13G26    29.95
KANELOA*         N/A     79  68  69 E15G28    30.01S
KEALIALALO*      N/A     79  63  57 E12G20    29.95R
LUA MAKIKA*    NOT AVBL
$$

HIZ014>015-060500-
LANAI-

CITY           SKY/WX    TMP DP  RH WIND       PRES   REMARKS
LANAI CITY     FAIR      77  66  68 NE21      29.99R
LANAI 1*         N/A     75  70  83 NE17G25     N/A
$$

HIZ017>028-060500-
MAUI-

CITY           SKY/WX    TMP DP  RH WIND       PRES   REMARKS
KAHULUI        MOSUNNY   82  68  62 NE17      29.95R
KAPALUA-W MAUI MOSUNNY   81  66  61 NE15G21   29.95
HANA AIRPORT   MOSUNNY   79  68  69 E3        30.00R
HANA*            N/A     81 N/A N/A E8          N/A
HALEAKALA SUMM   N/A     48  25  40 NE21        N/A
MAALAEA BAY*   NOT AVBL
HALEAKALA*     NOT AVBL
KAUPO GAP*       N/A     66  64  94 S3G10       N/A
KULA 1*          N/A     60  60  98 SW3         N/A
$$

HIZ023>026-060500-
BIG ISLAND OF HAWAII COAST AND LOWER SLOPES-

CITY           SKY/WX    TMP DP  RH WIND       PRES   REMARKS
KAILUA KONA    MOSUNNY   84  70  62 SW9       29.91R
HILO           PTSUNNY   81  69  67 N7        29.95R
HONOKAA*       NOT AVBL
KAWAIHAE MWT*    N/A     84 N/A N/A S7          N/A
KAWAIHAE*        N/A     81 N/A N/A W10         N/A
SOUTH POINT*     N/A     77 N/A N/A E13G20      N/A
UPOLU AIRPORT*   N/A    N/A N/A N/A E14G21      N/A
KAMUELA*       MOCLDY    68  64  88 NE10      30.07R
HAKALAU*         N/A     60  57  89 NE3         N/A
KALOKO-HONOKO*   N/A     84  70  61 W6        29.91
PALI 2*          N/A    N/A N/A N/A N17G25      N/A
KEALAKOMO*       N/A     66  48  52 NE16G23     N/A
KAUPULEHU*       N/A     81  66  61 W9G17       N/A
KAPAPALA*        N/A     72  68  87 SW7         N/A
LOWER KAHUKU*    N/A     66  66 100 NE2         N/A
PUHE CS*         N/A     84  70  61 SW3G10      N/A
PUHO CS*         N/A     80  69  67 NW3G9       N/A
PTA KEAMUKU*     N/A     70  57  64 CALM        N/A
WAIKOLOA*        N/A     77  64  65 NE9G15      N/A
$$

HIZ027>028-060500-
BIG ISLAND OF HAWAII INTERIOR AND SUMMMITS-

CITY           SKY/WX    TMP DP  RH WIND       PRES   REMARKS
BRADSHAW FIELD PTSUNNY   64  55  73 W10       30.27R
MK VISITOR CEN   N/A      0   0 100 MISG        N/A
MAUNA KEA*       N/A     39  -8  13 E7          N/A
MAUNA LOA*       N/A     52  12  20 MISG        N/A
MAUNA LOA 1*   NOT AVBL
PTA KIPUKA*      N/A     64  55  72 N7G15       N/A
PTA RANGE 17*    N/A     64  57  77 W10G18      N/A
PTA WEST*        N/A     73  64  73 NW9G15      N/A
NENE CABIN*      N/A     57 N/A N/A E3G9        N/A
AHUMOA*          N/A     56  53  90 NE5G10      N/A
PTA PORTABLE*  NOT AVBL
PUU MALI*        N/A     64  52  63 NE13        N/A
$$

HIC003-060500-
NORTHWEST ISLANDS-

CITY           SKY/WX    TMP DP  RH WIND       PRES   REMARKS
MIDWAY ISLAND  MOSUNNY   81  66  61 N8G16     29.99F
MIDWAY NOS*    NOT AVBL
FRENCH FRIGATE NOT AVBL
$$

PHZ110>124-180-060500-
BUOY REPORTS

STATION/POSITION TIME  TEMP    WIND        PRES    WAVE   SWELL
                       AIR SEA DIR/SP/G            HT/PER HT/DIR
                 (UTC) (F)     (DEG/KT/KT) (MB)    (FT/S) (FT/D)
BUOY 51001       NOT AVBL
BUOY 51101       0400   81 80  130/ 10/ 12 1014.5R   5/17   5/180
BUOY 51100       NOT AVBL
BUOY 51002       0400   80 81   80/ 12/ 16 1012.1R   6/17   5/140
BUOY 51003       0400   81 82   60/ 10/ 12 1013.1S   6/17   5
BUOY 51004       0342   79 80   50/ 14/ 17 1012.0R   6/17   5/190
BARBERS PT BUOY  NOT AVBL
WAIMEA BAY BUOY  0400      79                N/A     2/11   2/310
KAILUA BAY BUOY  0400      80                N/A     4/ 5   2/140
LANAI BUOY       NOT AVBL
BARBERS PT 2     0400      80                N/A     4/18   3/200
PAUWELA MAUI     0400      79                N/A     4/ 8   2/320
HILO             0400      80                N/A     4/ 8   2/110
KANEOHE BAY BUOY 0400      79                N/A     3/ 6
HANALEI KAUAI    0400      80                N/A     3/11   2/310
KAHULUI HARBOR   0400   79 83   50/  5/ 14 1014.3R
HONOLULU HARBOR  0400   83 81   60/  2/  8 1014.3R
KILO NALU        NOT AVBL
HILO HARBOR      0400   80 79   20/ 11/ 12 1014.0R
MOKUOLOE         0400   81 84   50/ 11/ 14 1014.5S
NAWILIWILI       0400   80 82   60/  7/ 10 1014.8R
WHOTS BUOY       NOT AVBL
BUOY 51028       NOT AVBL
$$

......................KEY........................................
  SKY/WX - SKY CONDITIONS/PRESENT WEATHER
  TMP    - TEMPERATURE IN FAHRENHEIT
  DWPT   - DEWPOINT IN FAHRENHEIT
  RH     - RELATIVE HUMIDITY IN PERCENT
  WIND   - DIRECTION AND SPEED /MPH FOR ISLANDS...KTS FOR BUOYS/
  PRES   - MEAN SEA LEVEL PRESSURE IN INCHES OF HG
  VSB    - VISIBILITY IN MILES
  HX     - HEAT INDEX
  WCI    - WIND CHILL INDEX
  VRB    - VARIABLE WIND DIRECTION
  N/A    - NOT AVAILABLE


USA.gov is the U.S. government's official web portal to all federal, state and local government web resources and services.